User: anonymous   Login
Location: Unspecified
(0.0000°N, 0.0000°E)
Time: 00:01:12
(UTC+00:00)
Language:

STARLINK-11194 [DTC] - Orbit

View from above orbital plane
View from above orbital plane
View from above satellite
View from above satellite

Ground track
Ground track

The orbit is defined by the following mean orbital elements,

1 60187U          26145.25440800 +.00000000 +00000-0 +13950-4 0 00008
2 60187  53.1591 143.5115 0001156  82.5338 277.5811 15.69705472    07
Epoch (UTC): 25 May 2026 06:06:20
Eccentricity: 0.0001156
inclination: 53.1591°
perigee height: 359 km
apogee height: 361 km
right ascension of ascending node: 143.5115°
argument of perigee: 82.5338°
revolutions per day: 15.69705472
mean anomaly at epoch: 277.5811°

The dashed part of the orbit path shows where the satellite is in the earth's shadow,  

DLR